GFSFLT2_con_3kmhel_147.txt.gz
Helicity
250 222 223 243 223 202 185 221 245 199 120 55 40 54 66 75 80 72 68 72 76 85 86 87 93 90 61 51 53 48 29 36
262 245 245 231 168 179 156 156 198 234 188 155 94 31 64 72 75 75 79 79 79 76 72 80 93 98 79 52 53 49 24 20
242 232 220 223 180 173 167 141 147 159 193 191 144 110 63 37 76 87 74 78 85 86 79 77 91 96 85 67 59 44 42 34
241 238 246 232 175 168 147 130 94 88 108 149 151 119 106 92 66 77 91 72 83 91 92 90 95 98 97 89 63 49 51 38
191 178 162 151 139 124 93 79 85 86 95 104 134 140 97 88 91 83 84 85 90 88 104 111 93 103 108 100 87 59 62 59
120 117 112 110 72 57 60 61 63 54 82 114 101 102 133 120 93 97 93 101 102 113 126 108 100 96 98 96 94 85 76 71
99 92 75 61 45 26 13 13 30 62 59 95 124 111 107 120 147 95 108 118 114 122 131 120 99 106 108 92 92 94 80 78
84 67 51 36 18 8 -9 -23 -12 11 48 68 124 160 145 134 126 114 113 111 131 119 135 139 121 108 110 106 84 98 89 85
92 70 53 37 20 4 -17 -20 -29 -17 22 60 92 134 183 172 168 144 104 109 101 140 124 136 150 129 101 117 105 90 103 86
93 64 47 35 14 -10 -22 -25 -29 -12 5 38 84 113 157 204 202 191 178 159 195 125 179 159 181 192 128 129 134 105 98 98
55 42 26 24 20 9 12 -3 -13 7 13 22 59 125 144 175 220 216 196 211 189 216 150 201 221 238 192 124 144 136 108 120
60 32 16 23 24 33 26 19 28 46 63 80 105 87 140 159 173 196 164 175 181 204 207 166 261 205 272 152 131 152 125 123
44 61 52 38 17 3 -15 -20 11 24 59 97 115 118 112 163 174 187 208 198 177 211 208 236 212 226 264 213 137 131 147 116
79 42 19 -10 -19 -16 -3 17 23 44 53 94 112 131 128 157 175 191 221 224 237 184 201 170 244 194 291 255 259 178 156 132
31 11 12 9 37 10 21 27 30 49 105 113 126 126 145 151 185 179 177 209 199 188 228 260 209 200 251 158 365 231 166 156
12 16 10 11 14 25 39 13 21 57 70 82 105 111 105 137 167 197 190 192 167 157 207 220 215 204 251 295 444 233 168 152
13 26 20 29 35 37 43 57 58 93 99 90 120 140 153 187 178 216 194 155 143 101 132 218 245 199 319 450 164 108 116 105
46 49 46 45 41 46 57 56 59 51 72 99 158 173 198 208 186 173 139 133 138 133 74 146 209 156 146 233 309 397 151 178
47 38 42 47 38 29 31 25 13 19 29 82 127 133 131 115 88 94 123 130 160 112 79 99 129 161 159 201 259 267 273 179
38 23 3 8 22 16 -2 -21 -41 -1 40 66 48 55 58 79 63 27 32 103 112 108 103 90 99 136 123 140 206 218 256 244

GFSFLT2_con_3kmhel_153.txt.gz
Helicity
105 111 117 117 109 160 167 166 154 133 125 116 98 76 65 61 56 43 42 24 23 26 33 38 37 45 49 44 41 26 -5 1
121 110 113 121 125 153 167 156 135 127 109 83 115 63 45 55 62 61 46 45 32 36 44 52 49 41 45 52 47 27 12 -3
136 142 138 136 116 136 132 134 116 122 118 98 110 98 90 60 62 70 81 76 60 61 50 66 63 52 47 48 53 44 30 23
146 140 132 132 115 110 103 97 90 82 79 90 84 83 80 83 59 56 87 89 82 83 87 98 87 65 72 97 77 30 21 14
169 154 116 106 94 85 79 77 75 72 71 54 41 59 58 73 91 86 83 91 101 111 116 124 108 94 67 94 58 27 30 24
160 128 102 84 79 83 66 61 49 61 66 64 66 64 66 59 64 81 89 113 88 96 136 140 136 99 79 56 61 64 56 39
137 106 88 73 63 64 62 60 67 66 59 66 87 93 102 98 102 97 84 92 104 122 96 104 129 136 104 69 80 85 47 39
97 89 78 71 67 65 60 59 62 55 55 74 67 86 101 120 133 131 121 112 112 120 129 147 93 127 144 129 140 96 82 82
85 80 80 76 67 64 56 69 63 66 64 78 85 83 92 99 116 138 146 152 125 112 116 119 135 112 133 148 181 150 98 99
106 114 110 103 81 58 65 62 60 53 63 60 74 92 121 116 136 139 153 200 212 205 173 151 143 148 120 121 154 195 146 102
129 118 117 104 73 65 57 58 51 60 59 66 89 94 86 99 120 157 199 193 217 208 214 236 155 149 151 135 119 150 181 178
130 117 110 103 91 79 63 54 54 65 76 83 96 78 109 151 106 120 147 165 199 218 208 218 215 162 147 151 131 129 142 200
121 110 103 93 85 66 64 58 62 60 66 77 109 121 111 103 119 135 133 163 194 258 322 335 208 159 133 139 146 107 149 141
99 104 101 77 52 32 29 36 29 33 56 73 81 110 97 114 137 124 157 146 178 190 220 249 293 221 217 179 210 154 140 140
111 110 88 61 50 26 33 17 37 56 72 85 109 128 132 126 130 116 114 143 158 171 160 177 191 266 261 192 232 253 220 141
115 78 62 44 28 11 15 2 16 26 39 57 91 145 147 161 146 145 116 104 109 116 128 159 180 175 208 243 206 244 256 188
90 63 57 50 22 16 2 15 -9 -9 17 63 106 140 170 160 149 162 134 132 115 114 112 100 133 167 182 206 217 244 171 250
80 72 64 64 48 29 3 6 4 16 42 50 71 97 131 148 156 141 131 107 90 79 93 100 77 94 123 140 189 245 270 197
85 87 93 74 47 23 9 -13 14 37 66 88 97 80 98 147 138 118 111 102 85 83 88 91 103 102 95 118 114 143 184 171
109 113 93 71 46 25 11 1 -35 -28 7 7 38 61 34 47 105 144 106 110 110 117 100 91 76 71 76 107 101 91 89 133

GFSFLT2_con_3kmhel_156.txt.gz
Helicity
103 96 102 101 89 103 102 124 140 142 119 95 115 86 50 43 41 46 49 43 43 47 40 23 29 31 36 35 23 9 4 -21
116 88 95 104 73 105 96 112 103 115 122 105 139 155 122 69 48 31 45 50 59 60 66 64 51 46 44 44 47 37 19 -7
82 106 113 129 83 99 95 109 106 112 89 88 91 87 98 91 80 68 52 36 42 41 55 79 88 76 69 64 71 79 54 46
105 117 126 132 111 99 85 101 84 85 57 57 56 54 76 95 83 96 75 57 52 51 65 77 115 130 109 104 138 119 90 46
156 131 130 122 108 69 73 70 53 67 50 48 24 28 39 49 60 88 103 72 76 70 64 90 114 158 141 135 160 150 127 83
173 162 150 127 93 60 63 66 50 42 50 46 22 20 38 42 47 62 75 87 88 98 80 73 68 96 124 132 147 176 142 67
165 166 134 96 76 49 39 35 54 46 61 67 36 30 41 44 62 83 103 109 100 97 96 79 99 88 67 56 79 93 136 109
136 141 97 80 74 67 57 61 65 61 61 70 59 52 54 56 65 89 109 148 160 138 97 107 71 79 97 80 57 34 86 158
131 108 75 63 49 38 30 58 64 73 85 89 80 67 82 81 54 72 137 176 162 126 157 180 115 83 59 89 94 88 41 110
110 83 70 59 49 41 55 66 62 72 80 74 95 115 100 98 111 106 105 99 100 133 181 173 168 165 97 56 99 103 94 101
94 81 90 90 77 77 70 79 61 63 52 61 90 77 97 76 65 65 82 109 129 147 179 224 202 180 190 115 71 104 92 101
124 109 110 114 100 98 95 85 70 53 49 56 105 77 118 77 52 76 89 100 117 151 187 218 225 243 237 184 141 97 99 115
125 117 123 114 104 97 86 74 56 58 82 136 114 132 119 91 85 93 102 112 119 127 150 167 139 221 196 179 101 108 63 74
145 139 119 107 82 70 57 42 46 65 72 91 123 107 124 93 68 72 94 92 98 103 125 139 141 156 219 194 113 111 122 118
129 116 107 94 80 39 36 31 37 42 43 44 59 80 91 88 80 96 88 81 65 68 93 101 121 153 169 226 210 108 44 130
126 112 102 80 61 44 33 -1 -7 0 11 12 20 47 68 96 86 90 84 79 85 83 89 91 111 115 147 208 144 137 118 111
104 81 76 69 59 45 7 2 -8 -3 9 11 11 11 35 61 70 84 107 106 103 104 95 83 86 109 119 118 141 123 137 115
95 98 84 80 78 60 45 34 17 13 24 21 19 16 17 36 65 87 105 110 122 122 93 83 78 67 72 104 103 129 157 165
100 122 119 103 82 63 47 39 32 28 17 -1 -1 29 47 55 42 49 72 110 117 122 117 77 62 82 57 65 74 94 84 82
137 133 136 111 88 71 46 38 10 -5 -8 -16 -34 -61 -47 -14 -29 4 62 102 120 107 94 81 73 45 81 72 72 72 92 98

GFSFLT2_con_3kmhel_159.txt.gz
Helicity
148 135 141 112 98 97 102 113 126 131 139 169 167 154 152 142 107 69 63 42 29 20 21 23 35 45 47 42 46 38 34 25
145 136 150 149 83 133 132 129 141 143 134 143 151 145 153 139 124 99 88 67 40 34 34 27 26 33 44 51 52 48 47 42
146 157 174 175 147 144 142 137 141 119 105 119 96 90 99 104 114 145 152 182 70 43 43 43 37 31 39 44 56 91 83 63
115 138 171 184 173 129 131 117 96 56 70 58 26 43 53 67 86 107 123 154 160 109 71 50 46 63 78 71 93 89 101 90
127 150 167 199 161 127 110 100 53 45 65 37 -1 -10 -4 1 8 25 46 80 48 69 90 102 94 63 49 67 99 98 116 113
149 166 189 204 144 140 114 98 42 48 44 48 -4 -15 -1 -3 -2 9 25 43 58 61 50 94 133 111 84 55 61 106 99 100
164 163 174 179 150 130 123 74 50 51 69 75 41 24 30 12 10 16 33 59 73 60 62 64 86 116 105 114 69 53 76 112
128 139 131 138 116 110 78 55 45 74 89 89 103 69 49 28 16 30 41 48 48 41 51 64 70 80 83 102 68 61 45 69
150 129 118 130 119 85 68 54 60 68 74 113 83 62 45 22 4 1 0 -6 31 40 50 72 87 106 108 83 106 67 46 50
145 125 113 116 84 69 67 76 72 73 98 113 134 113 85 32 15 9 19 32 57 59 65 94 112 115 95 127 118 110 62 60
135 106 110 91 74 79 95 117 122 125 140 145 160 132 110 64 28 32 68 70 82 108 115 120 100 94 77 78 109 136 99 57
115 86 90 86 98 85 107 133 131 124 97 78 77 44 69 42 31 45 28 42 65 85 109 122 137 126 89 77 70 87 91 83
132 116 120 121 117 118 126 114 81 63 69 77 73 58 46 54 24 10 44 63 76 92 105 122 148 168 147 96 78 72 78 66
130 86 107 125 104 103 75 67 42 35 44 54 57 63 59 62 51 43 54 67 88 101 123 131 129 143 169 166 85 94 91 75
146 121 127 115 103 66 40 22 34 59 65 29 14 16 18 23 39 32 57 70 70 85 99 123 135 145 156 186 181 175 146 144
164 123 109 67 52 52 52 24 18 17 -2 -25 -40 -33 -23 -6 -9 12 35 49 67 73 85 88 93 113 133 148 130 141 122 28
153 83 91 69 62 68 56 44 14 -3 -10 -14 -34 -52 -44 -14 -11 5 24 35 58 82 113 107 91 89 93 109 159 134 94 79
203 108 83 75 69 73 72 53 24 7 4 -2 -20 -52 -61 -29 -14 4 29 53 63 79 101 113 97 83 82 102 99 125 134 101
162 164 94 81 72 77 62 49 23 3 4 4 6 -19 -46 -55 -51 -36 1 44 60 73 86 113 101 84 84 63 45 55 58 58
160 203 161 114 86 72 52 46 34 26 23 7 -6 -14 -27 -56 -77 -68 -65 -39 2 37 62 77 86 99 101 93 63 35 13 50

GFSFLT2_con_3kmhel_162.txt.gz
Helicity
169 165 170 172 178 157 145 158 155 179 179 191 200 208 193 191 185 190 174 158 109 55 37 30 23 21 23 22 22 15 23 40
157 181 200 179 173 198 166 181 171 187 178 193 181 176 175 171 170 164 177 176 201 199 138 60 33 32 35 29 30 28 30 32
169 194 205 186 165 164 159 172 174 159 148 152 110 86 94 90 113 146 174 174 177 183 166 159 97 37 29 43 34 55 55 40
154 169 188 182 165 167 164 138 129 118 95 85 53 54 71 82 84 111 129 152 151 157 152 152 149 91 76 60 73 52 56 53
156 172 183 188 193 186 165 128 112 110 107 79 47 41 43 42 25 24 33 99 63 74 55 50 87 100 122 89 91 81 60 41
155 171 199 208 203 209 176 145 125 121 99 73 24 7 20 23 19 23 12 19 16 18 20 51 61 87 105 112 124 99 100 73
168 185 208 215 220 198 162 139 124 104 85 52 23 15 17 8 11 9 -10 -17 -17 -11 -9 5 25 52 81 93 88 95 79 85
150 177 195 205 213 188 150 119 95 86 80 103 104 65 40 19 4 8 4 7 20 15 5 -11 -1 33 53 80 95 102 100 79
151 174 200 209 189 174 143 114 104 114 111 136 122 77 49 27 5 -13 -2 3 22 43 63 75 61 64 71 61 70 88 91 106
141 150 162 174 167 149 143 157 122 110 86 90 95 87 67 24 11 6 6 -2 5 18 37 60 71 75 68 55 70 76 75 101
146 136 130 134 122 109 122 104 99 79 75 58 56 55 65 36 33 29 28 21 51 71 96 91 81 77 72 61 49 69 65 82
125 135 161 146 122 117 111 109 104 91 76 63 53 16 19 -8 1 9 9 35 74 104 106 114 123 121 114 96 70 51 68 100
104 142 150 134 124 101 105 96 80 73 39 50 35 27 12 -2 -13 -2 16 27 50 68 73 89 114 125 97 77 66 105 78 97
104 128 143 136 116 86 63 34 36 8 11 24 16 7 -3 -3 -5 5 21 30 69 105 114 93 108 136 101 96 32 55 195 210
121 136 138 140 128 101 72 34 35 50 42 12 -15 -34 -38 -38 -22 -16 -3 17 41 80 101 133 107 157 169 136 96 149 87 186
143 139 116 130 123 116 101 78 57 43 16 -6 -33 -51 -58 -75 -74 -64 -53 -19 23 52 84 107 114 125 155 150 145 116 87 6
157 134 139 129 120 94 74 61 43 25 21 17 5 -22 -38 -54 -83 -82 -66 -44 -1 36 66 95 93 91 119 135 149 120 98 80
164 138 109 82 93 93 94 92 64 39 33 23 17 5 4 -15 -65 -92 -87 -76 -56 -7 50 82 93 101 103 107 127 116 120 115
156 102 94 79 101 116 102 75 58 47 42 28 25 22 26 27 -9 -55 -78 -93 -86 -64 0 55 92 95 101 98 72 83 75 79
182 149 106 102 118 108 94 74 46 44 40 21 15 11 17 28 22 -8 -26 -47 -84 -96 -67 -11 47 71 97 89 88 71 57 59

GFSFLT2_con_3kmhel_165.txt.gz
Helicity
165 189 197 187 191 178 158 172 174 173 184 190 198 197 197 188 185 176 181 186 182 169 174 165 97 60 45 41 35 33 30 37
175 167 151 156 154 179 171 181 171 162 181 189 195 185 176 167 163 169 166 165 192 181 173 177 172 120 70 54 45 49 49 34
164 170 172 161 157 164 167 172 176 166 160 173 139 104 99 115 145 151 158 163 178 180 154 156 166 158 163 106 64 76 81 70
184 189 202 192 172 163 169 170 155 146 131 102 78 75 78 81 99 123 137 159 156 160 149 129 119 81 88 127 98 76 78 74
197 190 196 205 194 180 192 170 163 146 135 104 79 55 43 28 24 29 35 89 43 75 73 54 60 55 67 68 92 113 91 69
188 188 194 206 184 189 184 174 160 147 116 113 62 27 12 -3 -10 -1 -2 -2 11 13 25 55 62 61 65 67 74 79 83 98
188 200 218 229 243 225 215 195 160 123 123 98 41 15 -8 -23 -22 -19 -30 -26 -25 -11 4 17 36 60 80 88 83 91 102 93
151 162 157 171 180 188 173 161 130 105 97 90 65 15 9 7 -5 -12 -10 -15 -17 -22 -26 -26 -6 12 32 86 95 80 89 98
144 157 171 176 171 163 161 146 131 122 95 80 71 51 36 11 4 15 23 10 2 4 10 24 27 19 15 20 51 93 97 97
164 142 144 156 160 158 155 151 124 109 90 77 92 92 82 39 19 10 13 5 19 29 29 19 19 30 43 60 68 67 85 109
137 125 117 123 142 143 143 143 117 101 86 82 84 71 65 44 28 29 30 25 29 40 52 50 42 36 22 38 55 77 91 97
109 92 99 110 119 123 125 117 106 81 71 50 45 19 25 2 -12 -2 6 15 22 60 86 86 66 62 54 58 41 69 85 104
103 104 105 100 97 89 101 94 88 72 45 27 7 -9 -2 -12 -17 -15 -8 -15 22 52 42 71 76 98 37 38 60 127 134 146
92 87 108 120 107 94 68 50 56 34 31 41 47 30 9 -28 -40 -60 -48 -35 -3 42 70 58 59 103 9 34 3 110 245 304
72 88 109 136 149 101 82 62 55 65 78 59 38 29 11 -31 -51 -76 -88 -79 -54 -17 22 66 63 129 147 38 27 109 63 179
67 102 139 147 140 138 111 84 63 59 53 41 41 44 37 11 -32 -55 -86 -103 -68 -38 -6 30 54 98 120 165 132 95 28 6
92 140 138 151 150 110 87 86 76 69 67 69 64 42 45 44 15 -26 -48 -90 -100 -73 -29 4 21 53 103 134 159 145 95 83
135 140 149 123 92 93 85 94 79 78 73 67 59 44 48 63 55 26 -6 -42 -74 -107 -90 -41 -2 32 70 101 108 97 127 94
146 143 134 103 110 109 109 100 85 74 54 45 55 56 60 71 56 42 20 -8 -42 -68 -98 -101 -52 -7 55 82 87 95 95 100
143 131 121 120 124 127 105 94 81 60 51 45 40 35 43 48 45 28 20 10 -7 -32 -48 -84 -83 -30 38 96 86 78 71 70

GFSFLT2_con_3kmhel_168.txt.gz
Helicity
200 173 147 167 170 178 167 162 166 173 178 182 177 174 184 189 194 185 175 180 189 174 173 172 162 148 131 81 64 52 53 54
179 173 163 159 160 184 189 193 182 190 194 198 185 179 178 176 166 163 150 154 162 159 157 178 185 152 150 161 145 76 62 58
166 156 148 143 156 166 164 173 170 177 178 187 167 118 113 126 141 132 129 135 133 132 126 122 134 139 147 146 136 97 76 62
158 152 142 133 136 157 150 146 148 152 155 144 116 113 95 91 107 116 108 111 109 127 137 106 81 38 42 99 76 97 105 85
165 159 163 176 177 159 155 145 132 132 149 129 100 76 70 58 39 35 25 71 31 52 59 62 64 38 34 29 46 71 79 83
140 140 142 143 127 140 128 124 117 110 99 92 57 38 32 21 -4 -3 -9 -14 4 20 22 42 52 63 54 44 43 43 62 68
138 139 145 149 175 161 168 152 128 104 97 86 53 33 16 -5 -23 -31 -40 -28 -27 -18 3 35 56 61 71 69 57 49 48 50
116 134 129 144 156 153 127 116 97 88 73 69 61 27 21 11 5 -7 -10 -14 -14 -18 -15 -14 -2 36 67 79 82 73 56 58
96 116 121 141 145 140 126 103 88 81 73 74 66 55 43 21 3 7 11 6 13 2 -2 10 19 25 23 33 56 66 89 80
122 112 118 123 118 104 102 97 82 78 79 84 104 98 85 49 24 13 18 -14 -33 -37 -7 5 9 13 26 45 43 60 68 86
125 113 108 110 114 104 104 104 106 101 97 100 103 94 74 40 14 7 13 -12 -26 -15 -5 -26 -11 9 16 26 50 79 124 99
124 107 96 86 83 80 93 110 112 108 94 87 73 63 53 38 2 2 -11 -29 -34 -28 -9 2 -3 -5 13 0 63 92 90 157
144 114 76 45 60 66 86 91 90 99 73 77 69 71 56 44 24 5 -18 -36 -35 -30 -28 -4 0 23 -34 21 79 109 103 245
123 104 93 84 72 74 77 64 85 69 58 69 66 75 70 43 39 19 -11 -41 -44 -50 -34 -37 -21 26 -28 -47 -1 126 259 316
99 86 97 100 105 107 93 88 71 63 68 63 69 75 77 74 62 43 13 -30 -57 -82 -77 -53 -33 -4 66 -31 4 64 80 177
89 85 87 118 152 139 123 90 62 58 56 63 71 80 82 83 74 63 36 6 -10 -59 -90 -95 -61 -15 16 78 64 29 6 10
97 80 126 129 139 118 107 85 58 53 63 82 83 83 89 95 74 65 48 23 9 -13 -47 -88 -109 -69 -19 38 79 102 75 42
60 87 96 151 141 140 115 97 82 97 92 96 77 60 68 82 62 55 53 48 31 6 -16 -40 -76 -82 -54 -22 15 34 101 68
76 84 134 121 119 119 114 104 114 108 108 78 61 63 74 86 75 77 65 49 35 17 4 -16 -35 -73 -56 -47 -1 27 30 44
105 113 124 118 116 117 114 109 85 97 84 62 67 61 66 66 62 59 50 35 31 22 5 -15 -20 -52 -72 -65 -59 -6 31 38

GFSFLT2_con_3kmhel_174.txt.gz
Helicity
104 197 237 229 220 186 185 150 142 139 136 130 134 135 135 126 135 131 127 122 110 98 90 84 94 99 95 100 102 91 59 54
146 142 198 210 176 174 148 131 130 142 141 126 106 97 110 132 128 136 121 111 97 92 86 76 71 65 71 67 75 71 38 69
114 108 111 124 111 101 91 109 124 123 117 141 109 107 113 107 114 115 106 107 82 85 78 70 47 4 43 55 47 51 75 68
108 69 66 74 87 81 90 100 113 122 123 119 104 102 101 86 71 71 71 105 65 80 61 53 36 73 54 39 90 98 57 58
94 93 91 83 87 80 87 90 94 101 126 121 107 94 93 79 67 63 65 73 70 67 65 66 75 71 79 61 73 68 78 75
99 99 90 91 83 90 91 97 102 107 118 128 98 82 76 68 59 56 52 51 53 44 39 50 50 53 56 63 65 58 81 86
103 90 87 81 79 79 85 83 82 81 90 111 99 85 74 68 68 65 61 54 51 47 53 57 59 56 58 55 55 62 61 80
91 76 62 58 64 67 62 69 67 78 83 89 94 80 76 68 66 64 57 44 31 26 30 28 33 37 38 43 48 55 64 68
90 74 66 70 75 80 87 95 97 104 107 129 129 124 103 90 83 79 63 40 30 19 11 -3 -4 2 21 28 29 35 57 82
97 79 77 88 95 92 93 103 112 121 118 114 123 122 111 90 81 74 53 38 32 20 3 -9 -19 -27 -19 -9 9 25 47 58
115 98 97 97 90 86 92 99 108 105 100 105 112 115 116 87 77 62 34 28 29 27 12 -6 -27 -25 -20 -34 -23 -3 26 67
126 110 103 90 73 72 80 91 99 101 109 116 126 114 107 82 63 56 36 35 33 35 23 0 -28 -20 -52 -55 -50 -27 35 92
149 123 103 80 77 83 91 97 88 91 102 121 114 100 86 82 62 52 44 46 50 50 22 22 -9 -1 -48 -27 -86 -14 31 86
166 144 115 89 82 93 85 77 84 96 103 107 97 81 87 73 70 69 83 71 76 76 73 45 -5 -10 -63 -141 -59 -82 31 63
144 120 105 103 88 76 80 75 79 84 89 84 77 74 83 82 96 91 78 67 69 67 70 70 41 8 -33 -78 -96 -30 7 -7
128 107 89 76 60 64 62 82 85 96 87 75 72 93 89 91 90 75 63 62 68 62 59 58 52 47 -23 -47 -89 -61 -48 -21
145 127 110 75 71 79 84 78 102 77 68 67 81 78 78 82 85 83 91 72 68 69 67 69 50 37 15 -10 -74 -105 -24 -25
125 117 124 132 120 137 124 101 81 77 82 74 73 73 83 99 95 100 91 80 78 62 50 54 51 37 20 3 -32 -69 -76 -50
95 78 96 119 111 120 98 100 97 91 74 82 83 78 79 99 109 106 84 72 57 38 34 38 45 38 38 17 -17 -47 -81 -91
60 74 93 93 100 105 102 83 84 87 93 90 85 88 102 106 103 80 65 57 45 35 39 44 40 37 43 28 2 -21 -46 -76

GFSFLT2_con_3kmhel_177.txt.gz
Helicity
206 183 206 254 265 230 178 143 154 149 125 109 102 106 111 107 123 121 123 113 105 97 84 72 62 50 34 44 40 43 48 56
136 78 91 236 266 226 175 158 139 139 122 103 78 50 56 92 99 115 113 112 97 81 67 64 47 25 13 8 13 11 27 25
110 70 132 131 126 130 114 98 85 87 77 95 58 89 86 80 99 95 106 112 78 74 64 61 35 20 -7 8 19 27 23 59
106 72 69 78 91 80 78 85 100 110 111 106 92 80 84 75 70 45 60 97 44 72 51 54 44 81 72 28 62 85 78 52
110 80 91 78 92 68 72 74 79 82 113 112 94 87 95 93 90 88 82 82 79 76 69 73 76 64 75 73 76 64 61 65
98 82 100 120 73 103 91 96 93 101 107 122 103 102 104 107 98 86 70 65 69 68 63 65 62 57 57 63 72 72 79 87
128 112 112 101 100 93 96 98 109 106 107 122 127 119 106 95 78 70 66 69 72 71 69 62 56 53 52 47 50 59 67 78
136 141 123 113 111 105 98 105 85 97 102 109 118 103 98 90 84 85 85 85 78 68 63 49 42 44 39 42 39 37 44 62
162 145 121 111 95 87 89 83 79 77 82 115 134 137 117 108 106 105 108 97 90 74 63 45 34 30 37 36 22 23 31 49
138 122 101 88 83 84 93 92 93 98 111 125 143 150 140 121 112 115 94 82 74 58 49 49 39 35 36 19 8 12 21 11
151 128 115 108 112 116 122 120 128 133 142 138 146 143 136 116 120 109 72 66 68 69 50 38 27 33 26 -2 3 -17 0 69
155 149 141 130 124 130 133 137 141 129 122 119 122 115 121 115 102 84 63 71 64 54 41 44 31 42 7 -11 -46 23 60 20
182 157 132 100 98 113 119 134 117 111 101 110 114 122 120 108 79 74 66 69 73 75 56 62 52 51 -2 0 -36 -4 40 -24
164 141 117 115 115 154 144 128 127 110 102 117 131 126 110 88 78 68 73 67 75 82 94 87 64 67 50 -25 17 -24 39 32
154 148 140 144 127 98 103 92 73 78 99 113 112 91 81 77 84 88 92 95 96 103 105 107 95 80 67 22 -13 37 22 20
197 186 174 150 125 116 105 113 118 141 120 122 94 102 99 104 110 109 111 99 105 99 94 94 88 85 49 33 -10 -19 -8 8
207 178 167 148 146 138 120 164 168 141 119 94 88 81 93 99 109 107 98 88 87 92 83 84 67 58 51 42 11 -7 17 -5
174 143 131 120 123 125 139 128 117 101 96 81 83 80 93 108 95 80 87 77 75 68 60 68 63 65 55 51 38 7 8 -4
157 144 129 111 114 118 100 102 112 105 86 94 91 96 96 101 89 82 78 71 68 62 64 68 65 62 56 40 32 26 9 -9
149 123 115 94 98 99 106 109 119 116 119 113 115 117 110 90 80 87 86 80 73 76 72 58 52 40 46 41 37 24 4 -2

GFSFLT2_con_3kmhel_183.txt.gz
Helicity
246 232 221 215 227 228 210 200 188 166 159 98 105 103 75 93 76 79 79 73 73 78 70 78 87 91 77 54 47 75 86 93
167 179 178 192 166 161 167 194 191 202 163 158 180 146 90 102 70 70 80 84 80 89 90 110 122 121 120 75 89 113 108 129
116 131 131 133 159 147 149 161 216 221 273 188 100 93 92 87 64 70 93 120 84 112 106 126 125 127 121 122 102 69 83 118
107 106 108 116 157 148 144 164 188 204 232 163 126 136 121 82 72 80 90 149 138 139 136 121 103 96 88 97 82 97 115 144
92 91 60 73 112 123 156 170 168 170 184 173 160 135 149 135 129 120 122 130 116 109 111 112 116 104 105 105 95 88 91 117
80 76 73 51 128 134 138 144 138 164 184 238 185 165 171 162 148 134 131 127 132 125 125 122 124 118 121 111 112 109 106 111
116 145 147 200 256 215 234 225 176 148 182 226 177 181 155 160 146 137 116 121 133 132 129 127 135 133 115 111 116 113 98 90
170 193 238 286 287 264 226 207 181 158 190 218 210 194 151 156 154 151 155 133 132 129 133 137 152 119 120 128 128 98 125 131
193 215 263 266 241 223 202 179 159 162 184 217 235 250 187 161 163 169 160 116 133 135 150 148 141 114 129 125 115 137 167 94
267 274 244 238 232 214 223 177 146 155 174 191 223 249 179 159 161 180 142 117 127 136 153 162 128 122 121 168 110 114 116 150
287 262 254 269 254 221 232 227 200 170 180 193 218 230 192 156 167 176 113 112 145 152 158 143 118 134 121 185 93 161 200 135
329 282 251 234 234 237 257 263 215 181 185 185 192 194 193 134 141 166 108 137 168 163 161 133 96 124 146 148 173 203 152 108
279 232 187 184 182 198 224 198 187 183 164 162 166 166 167 160 144 183 140 156 156 153 115 120 133 164 147 196 221 204 164 70
233 176 136 107 109 114 145 154 150 157 152 150 147 164 155 165 167 199 196 174 133 142 148 107 99 146 128 121 113 103 131 96
189 149 104 120 228 251 247 230 204 198 167 163 159 160 175 194 213 194 177 134 101 136 133 138 112 127 178 117 123 107 80 82
201 198 287 247 250 282 224 213 177 130 114 120 129 149 178 185 187 140 113 121 127 124 138 130 116 135 91 156 141 98 94 74
308 322 263 254 178 191 219 212 236 173 131 133 146 161 166 128 127 133 145 141 137 126 133 108 91 85 108 79 105 93 108 78
382 337 290 282 265 236 238 295 208 183 148 132 110 103 115 118 115 137 158 166 138 102 96 84 74 62 83 120 128 89 81 66
377 345 268 231 246 218 205 199 177 141 124 109 118 107 116 130 138 158 157 163 135 121 110 96 105 70 54 54 68 71 59 54
329 281 238 194 203 194 203 184 156 168 133 148 145 112 116 133 153 169 182 171 159 141 102 94 114 124 72 44 20 29 26 29